"2016-07-09 00:00:00",1792729,7.261,193.2,5.184,0.578,24.19,110.2049,25.42,26.34,19.35,0,111.3,12.97,26.26,155.2
"2016-07-09 00:00:30",1792730,6.9,195.4,2.23,0.46,24.18,110.2055,25.42,26.35,19.85,0,111.3,12.97,26.26,157.4
"2016-07-09 00:01:00",1792731,6.884,208.3,4.015,0.658,24.14,110.2055,25.42,26.36,19.88,0,111.3,12.97,26.26,170.3
"2016-07-09 00:01:30",1792732,7.943,210.3,3.261,0.252,24.09,110.2085,25.43,26.39,18.92,0,111.3,12.96,26.27,172.3
"2016-07-09 00:02:00",1792733,6.692,208.6,2.879,0.571,24.08,110.217,25.45,26.38,18.08,0,111.3,12.97,26.29,170.6
"2016-07-09 00:02:30",1792734,7.044,199.8,3.737,0.674,24.17,110.233,25.49,26.39,18.8,0,111.3,12.97,26.33,161.8
"2016-07-09 00:03:00",1792735,7.483,201.9,3.916,0.558,24.12,110.2391,25.51,26.43,19.11,0,111.3,12.97,26.35,163.9
"2016-07-09 00:03:30",1792736,8.01,202.2,1.576,0.294,24.11,110.2391,25.51,26.43,18.78,0,111.3,12.97,26.35,164.2
"2016-07-09 00:04:00",1792737,7.949,204.5,1.382,0.147,24.02,110.2394,25.51,26.45,18.79,0,111.3,12.97,26.35,166.5
"2016-07-09 00:04:30",1792738,7.954,201.3,2.696,0.496,24.14,110.2428,25.52,26.46,19.29,0,111.3,12.97,26.36,163.3
"2016-07-09 00:05:00",1792739,8.71,194.8,1.914,0.544,24.29,110.2504,25.54,26.5,19.38,0,111.3,12.97,26.38,156.8
"2016-07-09 00:05:30",1792740,7.824,197.4,2.09,0.492,24.2,110.2683,25.58,26.49,19.53,0,111.3,12.97,26.43,159.4
"2016-07-09 00:06:00",1792741,8.15,194.1,2.857,0.227,24.25,110.2725,25.59,26.5,19.59,0,111.3,12.97,26.44,156.1
"2016-07-09 00:06:30",1792742,8.12,193.5,2.087,0.19,24.24,110.2728,25.6,26.51,19.45,0,111.3,12.97,26.44,155.5
"2016-07-09 00:07:00",1792743,8.02,195.2,2.566,0.159,24.22,110.2728,25.6,26.53,19.34,0,111.3,12.97,26.44,157.2
"2016-07-09 00:07:30",1792744,8.61,198.9,1.461,0.242,24.15,110.2728,25.6,26.53,19.3,0,111.3,12.97,26.44,160.9
"2016-07-09 00:08:00",1792745,7.75,201.5,1.651,0.375,24.14,110.2728,25.6,26.53,19.32,0,111.3,12.97,26.44,163.5
"2016-07-09 00:08:30",1792746,7.856,202,3.3,0.492,24.11,110.2728,25.6,26.56,19.33,0,111.3,12.97,26.44,164.0
"2016-07-09 00:09:00",1792747,8.4,201.9,4.614,0.536,24.15,110.2728,25.6,26.55,19.28,0,111.3,12.97,26.44,163.9
"2016-07-09 00:09:30",1792748,7.298,204.9,3.029,0.178,24.06,110.2728,25.6,26.55,19.32,0,111.3,12.97,26.44,166.9
"2016-07-09 00:10:00",1792749,7.121,204,3.074,0.371,24.16,110.2728,25.6,26.55,19.28,0,111.3,12.97,26.44,166.0
"2016-07-09 00:10:30",1792750,7.903,203.2,1.202,0.315,24.16,110.2728,25.6,26.56,19.18,0,111.3,12.97,26.44,165.2
"2016-07-09 00:11:00",1792751,7.887,202.5,2.431,0.179,24.09,110.2728,25.6,26.56,19.07,0,111.3,12.97,26.44,164.5
"2016-07-09 00:11:30",1792752,7.851,207.4,3.623,0.598,24.12,110.2728,25.6,26.56,19.1,0,111.3,12.97,26.44,169.4
"2016-07-09 00:12:00",1792753,7.837,207.2,2.502,0.158,24.18,110.2728,25.6,26.56,19.04,0,111.3,12.97,26.44,169.2
"2016-07-09 00:12:30",1792754,8.02,201.4,4.014,0.201,24.27,110.2728,25.6,26.56,18.89,0,111.3,12.97,26.44,163.4
"2016-07-09 00:13:00",1792755,8.39,204.2,3.342,0.228,24.36,110.2728,25.6,26.58,18.94,0,111.3,12.97,26.44,166.2
"2016-07-09 00:13:30",1792756,8.23,211.7,2.603,0.457,24.22,110.2742,25.6,26.58,18.91,0,111.3,12.97,26.44,173.7
"2016-07-09 00:14:00",1792757,7.55,206.6,4.562,0.328,24.12,110.2751,25.6,26.58,18.86,0,111.3,12.97,26.44,168.6
"2016-07-09 00:14:30",1792758,6.881,209.8,2.281,0.27,24.15,110.277,25.61,26.58,18.81,0,111.3,12.97,26.45,171.8
"2016-07-09 00:15:00",1792759,6.732,214.1,4.078,0.559,24.23,110.2767,25.61,26.59,19.01,0,111.3,12.97,26.45,176.1
"2016-07-09 00:15:30",1792760,6.594,214.1,3.245,0.426,24.2,110.2804,25.62,26.58,18.95,0,111.3,12.97,26.46,176.1
"2016-07-09 00:16:00",1792761,6.713,207.9,2.519,0.398,24.24,110.2829,25.62,26.58,19.11,0,111.3,12.97,26.46,169.9
"2016-07-09 00:16:30",1792762,6.195,208.2,4.001,0.508,24.19,110.2863,25.63,26.58,19.12,0,111.3,12.96,26.47,170.2
"2016-07-09 00:17:00",1792763,6.023,212.8,2.139,0.254,24.24,110.2975,25.66,26.6,19.2,0,111.3,12.97,26.50,174.8
"2016-07-09 00:17:30",1792764,6.689,213.7,3.732,0.363,24.26,110.3051,25.68,26.62,19.26,0,111.3,12.96,26.52,175.7
"2016-07-09 00:18:00",1792765,7.535,203.6,4.024,0.256,24.16,110.3065,25.68,26.61,19.23,0,111.3,12.96,26.52,165.6
"2016-07-09 00:18:30",1792766,7.025,204.6,2.617,0.683,24.16,110.3065,25.68,26.62,19.12,0,111.3,12.96,26.52,166.6
"2016-07-09 00:19:00",1792767,5.576,210,4.137,0.37,24.22,110.3065,25.68,26.63,19.26,0,111.3,12.96,26.52,172.0
"2016-07-09 00:19:30",1792768,6.96,202.2,3.599,0.181,24.15,110.3065,25.68,26.64,18.75,0,111.3,12.96,26.52,164.2
"2016-07-09 00:20:00",1792769,7.181,199.2,3.67,0.284,24.19,110.3065,25.68,26.65,18.64,0,111.3,12.97,26.52,161.2
"2016-07-09 00:20:30",1792770,6.705,210.2,3.459,0.225,24.09,110.3065,25.68,26.65,18.71,0,111.3,12.97,26.52,172.2
"2016-07-09 00:21:00",1792771,6.968,212.2,4.214,0.579,24.23,110.3085,25.69,26.65,18.66,0,111.3,12.97,26.53,174.2
"2016-07-09 00:21:30",1792772,7.736,200.2,3.573,0.894,24.27,110.3104,25.69,26.64,18.6,0,111.3,12.97,26.53,162.2
"2016-07-09 00:22:00",1792773,8.81,191.5,2.498,0.391,24.57,110.3144,25.7,26.66,18.85,0,111.3,12.97,26.54,153.5
"2016-07-09 00:22:30",1792774,8.69,193.2,4.36,0.46,24.46,110.3205,25.72,26.65,18.42,0,111.4,12.97,26.56,155.2
"2016-07-09 00:23:00",1792775,7.87,194.7,3.043,0.313,24.47,110.3188,25.71,26.66,18.16,0,111.3,12.97,26.56,156.7
"2016-07-09 00:23:30",1792776,7.454,203.5,1.559,0.313,24.49,110.3174,25.71,26.65,17.86,0,111.3,12.97,26.55,165.5
"2016-07-09 00:24:00",1792777,7.804,205.8,1.193,0.269,24.51,110.3132,25.7,26.66,17.58,0,111.3,12.97,26.54,167.8
"2016-07-09 00:24:30",1792778,7.776,201.8,1.124,0.158,24.54,110.3076,25.69,26.66,17.25,0,111.3,12.97,26.53,163.8
"2016-07-09 00:25:00",1792779,7.592,200.8,0.967,0.122,24.69,110.3065,25.68,26.65,16.88,0,111.4,12.97,26.52,162.8
"2016-07-09 00:25:30",1792780,7.798,201.5,1.393,0.135,24.59,110.3065,25.68,26.65,17.65,0,111.3,12.97,26.52,163.5
"2016-07-09 00:26:00",1792781,8.13,198.7,2.053,0.323,24.7,110.3062,25.68,26.65,18.1,0,111.3,12.97,26.52,160.7
"2016-07-09 00:26:30",1792782,7.903,197.2,3.132,0.398,24.68,110.2919,25.64,26.65,18.2,0,111.3,12.97,26.49,159.2
"2016-07-09 00:27:00",1792783,7.023,195.8,2.827,0.3,24.65,110.2753,25.6,26.62,18.43,0,111.3,12.97,26.44,157.8
"2016-07-09 00:27:30",1792784,7.194,189.1,5.455,0.401,24.7,110.2728,25.6,26.6,18.84,0,111.3,12.97,26.44,151.1
"2016-07-09 00:28:00",1792785,7.557,196,5.874,0.265,24.68,110.2728,25.6,26.61,19.03,0,111.3,12.97,26.44,158.0
"2016-07-09 00:28:30",1792786,7.143,197.7,2.371,0.253,24.65,110.2703,25.59,26.58,18.96,0,111.3,12.97,26.43,159.7
"2016-07-09 00:29:00",1792787,6.962,192.4,2.919,0.37,24.54,110.2523,25.54,26.57,19.08,0,111.3,12.97,26.38,154.4
"2016-07-09 00:29:30",1792788,6.065,187.6,3.933,0.241,24.29,110.2428,25.52,26.55,19.71,0,111.3,12.97,26.36,149.6
"2016-07-09 00:30:00",1792789,6.303,184.1,4.519,0.36,24.28,110.2391,25.51,26.55,19.96,0,111.3,12.98,26.35,146.1
"2016-07-09 00:30:30",1792790,6.232,183.2,4.047,0.355,24.25,110.2391,25.51,26.54,20.25,0,111.3,12.98,26.35,145.2
"2016-07-09 00:31:00",1792791,6.506,186,5.528,0.308,24.16,110.2363,25.5,26.52,20.18,0,111.3,12.98,26.34,148.0
"2016-07-09 00:31:30",1792792,5.937,190.6,3.264,0.219,24.26,110.2139,25.44,26.49,19.92,0,111.3,12.98,26.28,152.6
"2016-07-09 00:32:00",1792793,6.457,188.9,5.826,0.271,24.14,110.2094,25.43,26.47,19.98,0,111.3,12.97,26.27,150.9
"2016-07-09 00:32:30",1792794,5.946,202.9,4.223,0.323,24.06,110.2066,25.43,26.46,20.33,0,111.3,12.97,26.27,164.9
"2016-07-09 00:33:00",1792795,6.693,188.3,3.675,0.223,24.19,110.2058,25.42,26.46,20.25,0,111.3,12.97,26.26,150.3
"2016-07-09 00:33:30",1792796,7.167,188.8,4.575,0.487,24.17,110.2055,25.42,26.46,20.33,0,111.3,12.97,26.26,150.8
"2016-07-09 00:34:00",1792797,7.578,185.2,1.705,0.526,24.18,110.2055,25.42,26.45,20.28,0,111.3,12.97,26.26,147.2
"2016-07-09 00:34:30",1792798,6.806,182.3,2.258,0.262,24.19,110.2055,25.42,26.43,20.18,0,111.3,12.97,26.26,144.3
"2016-07-09 00:35:00",1792799,7.083,183.5,4.22,0.353,24.16,110.2055,25.42,26.44,20.19,0,111.3,12.97,26.26,145.5
"2016-07-09 00:35:30",1792800,7.147,188,3.537,0.194,24.25,110.2055,25.42,26.44,20.16,0,111.3,12.97,26.26,150.0
"2016-07-09 00:36:00",1792801,7.096,186.7,5.092,0.251,24.21,110.2055,25.42,26.42,20.23,0,111.3,12.97,26.26,148.7
"2016-07-09 00:36:30",1792802,7.114,181.6,2.909,0.236,24.07,110.2052,25.42,26.42,20.13,0,111.3,12.97,26.26,143.6
"2016-07-09 00:37:00",1792803,7.55,182.5,4.143,0.469,24.18,110.201,25.41,26.4,20.26,0,111.3,12.97,26.25,144.5
"2016-07-09 00:37:30",1792804,7.182,178.9,1.766,0.481,24.11,110.185,25.37,26.41,20.46,0,111.3,12.97,26.21,140.9
"2016-07-09 00:38:00",1792805,7.675,181.2,1.614,0.418,24.07,110.1779,25.35,26.4,20.28,0,111.3,12.97,26.19,143.2
"2016-07-09 00:38:30",1792806,6.611,179.6,3.038,0.483,24.12,110.1718,25.34,26.38,20.45,0,111.3,12.97,26.18,141.6
"2016-07-09 00:39:00",1792807,7.596,180.3,2.427,0.291,24.07,110.1718,25.34,26.38,20.45,0,111.3,12.98,26.18,142.3
"2016-07-09 00:39:30",1792808,6.712,175.6,4.8,0.331,24.07,110.1718,25.34,26.38,20.47,0,111.3,12.98,26.18,137.6
"2016-07-09 00:40:00",1792809,6.29,171.6,2.694,0.486,24.05,110.1695,25.33,26.35,20.45,0,111.3,12.98,26.17,133.6
"2016-07-09 00:40:30",1792810,6.594,174.4,2.517,0.383,24.06,110.1541,25.29,26.34,20.38,0,111.3,12.98,26.13,136.4
"2016-07-09 00:41:00",1792811,7.459,179.7,1.872,0.251,24,110.1415,25.26,26.33,20.29,0,111.3,12.98,26.10,141.7
"2016-07-09 00:41:30",1792812,6.852,181.7,2.782,0.277,24,110.1381,25.25,26.32,20.4,0,111.3,12.98,26.09,143.7
"2016-07-09 00:42:00",1792813,6.779,183.8,3,0.248,24.05,110.1381,25.25,26.29,20.41,0,111.3,12.98,26.09,145.8
"2016-07-09 00:42:30",1792814,7.344,180,1.889,0.396,24.09,110.1381,25.25,26.28,20.37,0,111.3,12.98,26.09,142.0
"2016-07-09 00:43:00",1792815,7.401,184.6,1.378,0.243,24.15,110.1375,25.25,26.29,20.3,0,111.3,12.98,26.09,146.6
"2016-07-09 00:43:30",1792816,7.201,184,1.505,0.221,24.17,110.1344,25.24,26.26,20.14,0,111.3,12.98,26.08,146.0
"2016-07-09 00:44:00",1792817,7.233,190.1,3.059,0.188,24.14,110.1241,25.21,26.25,20.03,0,111.3,12.98,26.05,152.1
"2016-07-09 00:44:30",1792818,7.489,187.4,3.466,0.352,24.19,110.1162,25.19,26.24,20.03,0,111.3,12.98,26.03,149.4
"2016-07-09 00:45:00",1792819,7.155,190.4,1.874,0.253,24.18,110.1134,25.19,26.24,19.98,0,111.3,12.98,26.03,152.4
"2016-07-09 00:45:30",1792820,7.053,188.1,4.599,0.279,24.16,110.1137,25.19,26.24,19.97,0,111.3,12.98,26.03,150.1
"2016-07-09 00:46:00",1792821,6.994,190.6,3.859,0.238,24.16,110.1128,25.18,26.21,20,0,111.3,12.98,26.02,152.6
"2016-07-09 00:46:30",1792822,6.846,196.5,2.609,0.163,24.27,110.1128,25.18,26.22,19.79,0,111.3,12.98,26.02,158.5
"2016-07-09 00:47:00",1792823,6.89,199.6,1.371,0.134,24.23,110.1128,25.18,26.22,19.74,0,111.3,12.98,26.02,161.6
"2016-07-09 00:47:30",1792824,6.305,202.4,2.731,0.2,24.07,110.1148,25.19,26.21,19.76,0,111.3,12.98,26.03,164.4
"2016-07-09 00:48:00",1792825,6.341,196.8,2.379,0.246,24.05,110.1179,25.2,26.2,19.77,0,111.3,12.98,26.04,158.8
"2016-07-09 00:48:30",1792826,6.41,199.4,2.23,0.271,24.05,110.1229,25.21,26.22,19.67,0,111.3,12.98,26.05,161.4
"2016-07-09 00:49:00",1792827,6.573,196.3,2.337,0.216,24.05,110.1302,25.23,26.22,19.73,0,111.3,12.98,26.07,158.3
"2016-07-09 00:49:30",1792828,6.572,199.1,5.221,0.359,24.14,110.1353,25.24,26.22,19.68,0,111.3,12.98,26.08,161.1
"2016-07-09 00:50:00",1792829,6.191,201.6,3.467,0.18,24.2,110.1378,25.25,26.21,19.41,0,111.3,12.97,26.09,163.6
"2016-07-09 00:50:30",1792830,6.817,200.2,1.913,0.374,24.2,110.1381,25.25,26.23,19.56,0,111.3,12.97,26.09,162.2
"2016-07-09 00:51:00",1792831,6.902,200.4,1.622,0.126,24.38,110.1381,25.25,26.23,19.47,0,111.3,12.97,26.09,162.4
"2016-07-09 00:51:30",1792832,6.595,204.6,2.075,0.301,24.35,110.1381,25.25,26.23,19.53,0,111.3,12.97,26.09,166.6
"2016-07-09 00:52:00",1792833,6.394,210.5,1.977,0.292,24.35,110.1381,25.25,26.25,19.67,0,111.3,12.97,26.09,172.5
"2016-07-09 00:52:30",1792834,6.79,200.8,3.677,0.229,24.27,110.1381,25.25,26.24,19.65,0,111.3,12.97,26.09,162.8
"2016-07-09 00:53:00",1792835,6.551,204.9,2.444,0.221,24.23,110.1384,25.25,26.25,19.66,0,111.3,12.97,26.09,166.9
"2016-07-09 00:53:30",1792836,6.049,199.8,4.14,0.45,24.15,110.1386,25.25,26.25,19.64,0,111.3,12.97,26.09,161.8
"2016-07-09 00:54:00",1792837,6.422,205,2.11,0.229,24.2,110.144,25.26,26.27,19.64,0,111.3,12.97,26.10,167.0
"2016-07-09 00:54:30",1792838,6.602,204.4,2.696,0.355,24.16,110.1466,25.27,26.26,19.62,0,111.3,12.97,26.11,166.4
"2016-07-09 00:55:00",1792839,6.644,209.2,1.833,0.259,24.17,110.1469,25.27,26.27,19.59,0,111.3,12.97,26.11,171.2
"2016-07-09 00:55:30",1792840,6.424,211.8,1.863,0.233,24.22,110.1469,25.27,26.28,19.65,0,111.3,12.97,26.11,173.8
"2016-07-09 00:56:00",1792841,5.894,209.4,2.501,0.13,24.26,110.1465,25.27,26.27,19.67,0,111.3,12.98,26.11,171.4
"2016-07-09 00:56:30",1792842,6.175,210.9,1.761,0.186,24.23,110.1468,25.27,26.27,19.67,0,111.3,12.98,26.11,172.9
"2016-07-09 00:57:00",1792843,6.119,208.9,1.442,0.146,24.21,110.1471,25.27,26.27,19.67,0,111.3,12.98,26.11,170.9
"2016-07-09 00:57:30",1792844,6.143,207.6,1.279,0.298,24.17,110.1497,25.28,26.28,19.71,0,111.3,12.98,26.12,169.6
"2016-07-09 00:58:00",1792845,6.093,206.3,2.525,0.19,24.09,110.1511,25.28,26.28,19.75,0,111.3,12.98,26.12,168.3
"2016-07-09 00:58:30",1792846,6.184,205.6,3.085,0.202,24.17,110.1564,25.3,26.28,19.85,0,111.3,12.98,26.14,167.6
"2016-07-09 00:59:00",1792847,5.878,205.3,2.012,0.116,24.23,110.1607,25.31,26.28,19.84,0,111.3,12.98,26.15,167.3
"2016-07-09 00:59:30",1792848,5.956,206.2,2.169,0.122,24.19,110.1659,25.32,26.28,19.81,0,111.3,12.98,26.16,168.2
"2016-07-09 01:00:00",1792849,5.858,206.6,3.175,0.181,24.17,110.1707,25.33,26.31,19.68,0,111.3,12.98,26.17,168.6
"2016-07-09 01:00:30",1792850,5.775,210.1,1.272,0.091,24.14,110.1721,25.34,26.3,19.71,0,111.3,12.98,26.18,172.1
"2016-07-09 01:01:00",1792851,5.824,206.9,1.317,0.049,24.35,110.1718,25.34,26.3,19.68,0,111.3,12.98,26.18,168.9
"2016-07-09 01:01:30",1792852,5.847,205.2,0.644,0.051,24.33,110.1721,25.34,26.31,19.56,0,111.3,12.98,26.18,167.2
"2016-07-09 01:02:00",1792853,5.792,205,1.175,0.125,24.26,110.173,25.34,26.3,19.51,0,111.3,12.98,26.18,167.0
"2016-07-09 01:02:30",1792854,5.557,204.3,1.105,0.087,24.15,110.1724,25.34,26.32,19.46,0,111.3,12.98,26.18,166.3
"2016-07-09 01:03:00",1792855,5.729,205,0.859,0.084,24.32,110.1724,25.34,26.32,19.43,0,111.3,12.98,26.18,167.0
"2016-07-09 01:03:30",1792856,5.452,203.5,0.98,0.117,24.12,110.1732,25.34,26.33,19.45,0,111.3,12.98,26.18,165.5
"2016-07-09 01:04:00",1792857,5.378,205.5,0.67,0.096,24.05,110.1791,25.35,26.34,19.33,0,111.3,12.98,26.20,167.5
"2016-07-09 01:04:30",1792858,5.259,205.1,1.089,0.054,24.17,110.1858,25.37,26.35,19.32,0,111.3,12.98,26.21,167.1
"2016-07-09 01:05:00",1792859,5.215,204.5,0.966,0.103,24.22,110.1983,25.4,26.35,19.25,0,111.3,12.98,26.24,166.5
"2016-07-09 01:05:30",1792860,5.26,204.9,1.266,0.089,24.13,110.2058,25.42,26.36,19.26,0,111.3,12.98,26.26,166.9
"2016-07-09 01:06:00",1792861,5.347,205.4,1.623,0.155,24.03,110.2055,25.42,26.38,19.31,0,111.3,12.98,26.26,167.4
"2016-07-09 01:06:30",1792862,5.637,205.4,0.98,0.082,24.18,110.2055,25.42,26.4,19.12,0,111.3,12.98,26.26,167.4
"2016-07-09 01:07:00",1792863,5.585,207.8,0.797,0.115,24.15,110.2055,25.42,26.39,18.76,0,111.3,12.97,26.26,169.8
"2016-07-09 01:07:30",1792864,5.57,209,0.868,0.146,24.17,110.2061,25.42,26.4,18.59,0,111.3,12.97,26.26,171.0
"2016-07-09 01:08:00",1792865,5.748,208.2,1.37,0.123,24.33,110.2058,25.42,26.41,18.73,0,111.3,12.97,26.26,170.2
"2016-07-09 01:08:30",1792866,5.2,206.8,2.823,0.312,24.47,110.2058,25.42,26.41,18.96,0,111.3,12.97,26.26,168.8
"2016-07-09 01:09:00",1792867,5.448,210.6,1.113,0.139,24.63,110.2058,25.42,26.42,18.74,0,111.3,12.97,26.26,172.6
"2016-07-09 01:09:30",1792868,5.726,211.8,0.859,0.1,24.67,110.2061,25.42,26.42,18.44,0,111.3,12.97,26.26,173.8
"2016-07-09 01:10:00",1792869,5.509,211.7,1.436,0.166,24.87,110.2073,25.43,26.42,18.36,0,111.3,12.97,26.27,173.7
"2016-07-09 01:10:30",1792870,4.89,209.8,2.549,0.294,24.72,110.2079,25.43,26.43,18.59,0,111.3,12.97,26.27,171.8
"2016-07-09 01:11:00",1792871,4.965,212.4,3.197,0.226,24.8,110.2089,25.43,26.43,18.87,0,111.3,12.97,26.27,174.4
"2016-07-09 01:11:30",1792872,5.498,218.8,1.222,0.172,24.85,110.211,25.44,26.42,18.74,0,111.3,12.97,26.28,180.8
"2016-07-09 01:12:00",1792873,5.561,218.7,2.559,0.177,24.86,110.2144,25.45,26.44,18.62,0,111.3,12.97,26.29,180.7
"2016-07-09 01:12:30",1792874,5.185,214.8,3.125,0.295,24.87,110.2191,25.46,26.43,18.77,0,111.3,12.97,26.30,176.8
"2016-07-09 01:13:00",1792875,4.75,211.6,2.112,0.189,24.84,110.206,25.42,26.42,18.93,0,111.3,12.98,26.26,173.6
"2016-07-09 01:13:30",1792876,5.235,215.6,2.263,0.312,24.94,110.2026,25.42,26.39,18.97,0,111.3,12.98,26.26,177.6
"2016-07-09 01:14:00",1792877,5.591,211.3,2.186,0.193,24.98,110.1974,25.4,26.4,18.94,0,111.3,12.98,26.24,173.3
"2016-07-09 01:14:30",1792878,5.709,213.3,0.967,0.161,25,110.1981,25.4,26.39,18.92,0,111.3,12.98,26.24,175.3
"2016-07-09 01:15:00",1792879,5.865,209.8,1.951,0.194,25,110.1962,25.4,26.38,18.91,0,111.3,12.98,26.24,171.8
"2016-07-09 01:15:30",1792880,5.56,206.2,2.425,0.348,25,110.178,25.35,26.35,19.17,0,111.3,12.98,26.19,168.2
"2016-07-09 01:16:00",1792881,5.492,206.6,2.562,0.14,24.94,110.1665,25.32,26.35,19.36,0,111.3,12.98,26.16,168.6
"2016-07-09 01:16:30",1792882,5.994,205.8,2.399,0.232,24.98,110.1678,25.33,26.34,19.38,0,111.3,12.98,26.17,167.8
"2016-07-09 01:17:00",1792883,5.745,204.7,1.126,0.116,25.07,110.1647,25.32,26.31,19.31,0,111.3,12.98,26.16,166.7
"2016-07-09 01:17:30",1792884,5.685,204.7,1.206,0.104,25.04,110.1454,25.27,26.3,19.33,0,111.3,12.98,26.11,166.7
"2016-07-09 01:18:00",1792885,5.662,202.6,1.597,0.215,25.01,110.1409,25.26,26.28,19.43,0,111.3,12.98,26.10,164.6
"2016-07-09 01:18:30",1792886,5.405,197.9,1.989,0.157,25.03,110.1409,25.26,26.25,19.49,0,111.3,12.98,26.10,159.9
"2016-07-09 01:19:00",1792887,5.58,199.6,1.441,0.188,25.09,110.13,25.23,26.25,19.37,0,111.3,12.98,26.07,161.6
"2016-07-09 01:19:30",1792888,5.486,201.8,1.753,0.112,25.04,110.1115,25.18,26.22,19.18,0,111.3,12.98,26.02,163.8
"2016-07-09 01:20:00",1792889,5.522,200.6,1.959,0.107,25.1,110.1078,25.17,26.19,19.11,0,111.3,12.98,26.01,162.6
"2016-07-09 01:20:30",1792890,5.341,196.9,2.281,0.114,25.07,110.1075,25.17,26.17,19.14,0,111.3,12.98,26.01,158.9
"2016-07-09 01:21:00",1792891,5.412,192.3,0.846,0.106,25.02,110.0955,25.14,26.15,19.26,0,111.3,12.98,25.98,154.3
"2016-07-09 01:21:30",1792892,5.094,190.6,0.589,0.07,25.09,110.0761,25.09,26.13,19.43,0,111.3,12.98,25.93,152.6
"2016-07-09 01:22:00",1792893,5.054,188.5,2.156,0.191,25.03,110.0741,25.08,26.13,19.49,0,111.3,12.99,25.92,150.5
"2016-07-09 01:22:30",1792894,5.097,179.3,1.952,0.258,24.97,110.071,25.08,26.11,19.99,0,111.3,12.99,25.92,141.3
"2016-07-09 01:23:00",1792895,5.117,186.3,2.535,0.216,24.99,110.0466,25.01,26.09,20.03,0,111.3,12.99,25.85,148.3
"2016-07-09 01:23:30",1792896,5.354,184.5,2.756,0.334,25.02,110.0404,25,26.05,19.92,0,111.3,12.99,25.84,146.5
"2016-07-09 01:24:00",1792897,4.634,186.9,1.954,0.125,25,110.0404,25,26.02,20.14,0,111.3,12.99,25.84,148.9
"2016-07-09 01:24:30",1792898,4.462,182.1,2.709,0.179,24.98,110.0281,24.97,26.02,20.2,0,111.2,12.99,25.81,144.1
"2016-07-09 01:25:00",1792899,4.606,180.8,1.426,0.157,24.94,110.0095,24.92,26,20.29,0,111.2,12.99,25.76,142.8
"2016-07-09 01:25:30",1792900,4.425,179.2,1.568,0.251,24.97,110.0067,24.91,25.98,20.52,0,111.2,12.99,25.75,141.2
"2016-07-09 01:26:00",1792901,4.474,174,2.006,0.242,24.96,110.0045,24.91,25.97,20.58,0,111.2,12.98,25.74,136.0
"2016-07-09 01:26:30",1792902,4.975,179.3,2.171,0.214,24.94,109.9817,24.85,25.94,20.71,0,111.2,12.98,25.69,141.3
"2016-07-09 01:27:00",1792903,4.906,183,3.477,0.328,25.01,109.973,24.83,25.92,20.59,0,111.2,12.99,25.66,145.0
"2016-07-09 01:27:30",1792904,4.609,178.2,2.083,0.187,25.02,109.973,24.83,25.91,20.43,0,111.2,12.98,25.66,140.2
"2016-07-09 01:28:00",1792905,4.559,179.8,3.086,0.422,25,109.9655,24.81,25.88,20.72,0,111.2,12.99,25.64,141.8
"2016-07-09 01:28:30",1792906,4.242,182.6,1.419,0.242,24.99,109.9482,24.76,25.88,20.81,0,111.2,12.98,25.60,144.6
"2016-07-09 01:29:00",1792907,4.756,181.3,2.115,0.219,24.98,109.9468,24.76,25.85,20.85,0,111.2,12.99,25.60,143.3
"2016-07-09 01:29:30",1792908,4.779,189.8,2.328,0.275,24.94,109.9532,24.77,25.84,20.81,0,111.2,12.99,25.61,151.8
"2016-07-09 01:30:00",1792909,4.656,189.7,2.026,0.288,24.94,109.9601,24.79,25.82,20.47,0,111.2,12.99,25.63,151.7
"2016-07-09 01:30:30",1792910,4.607,185,1.673,0.131,24.82,109.9599,24.79,25.79,20.39,0,111.2,12.99,25.63,147.0
"2016-07-09 01:31:00",1792911,4.862,181.9,2.162,0.155,24.74,109.9519,24.77,25.78,20.5,0,111.2,12.99,25.61,143.9
"2016-07-09 01:31:30",1792912,4.812,188.4,1.658,0.268,24.8,109.9423,24.75,25.77,20.52,0,111.2,12.99,25.58,150.4
"2016-07-09 01:32:00",1792913,4.907,185.6,2.981,0.301,24.74,109.9388,24.74,25.78,20.55,0,111.2,12.99,25.58,147.6
"2016-07-09 01:32:30",1792914,4.991,185.8,2.386,0.102,24.81,109.936,24.73,25.76,20.59,0,111.2,13,25.57,147.8
"2016-07-09 01:33:00",1792915,5.173,189.3,1.298,0.122,24.86,109.934,24.72,25.75,20.2,0,111.2,13,25.56,151.3
"2016-07-09 01:33:30",1792916,5.156,190,0.656,0.092,24.87,109.9346,24.73,25.75,20.03,0,111.2,13,25.56,152.0
"2016-07-09 01:34:00",1792917,4.923,188.4,1.376,0.122,24.85,109.9352,24.73,25.73,20.12,0,111.2,13,25.57,150.4
"2016-07-09 01:34:30",1792918,5.159,187.6,1.241,0.122,24.87,109.9375,24.73,25.74,20.19,0,111.2,13,25.57,149.6
"2016-07-09 01:35:00",1792919,5.1,189.8,1.051,0.104,24.91,109.9417,24.74,25.74,20.31,0,111.2,13,25.58,151.8
"2016-07-09 01:35:30",1792920,5.156,187.8,1.459,0.113,24.9,109.9474,24.76,25.74,20.16,0,111.2,13,25.60,149.8
"2016-07-09 01:36:00",1792921,4.843,190.1,1.637,0.125,24.82,109.9552,24.78,25.75,20.31,0,111.2,13,25.62,152.1
"2016-07-09 01:36:30",1792922,4.892,189.5,1.208,0.137,24.84,109.9606,24.79,25.74,20.38,0,111.2,13,25.63,151.5
"2016-07-09 01:37:00",1792923,4.682,189.8,1.44,0.108,24.78,109.972,24.82,25.77,20.33,0,111.2,13,25.66,151.8
"2016-07-09 01:37:30",1792924,4.715,189,0.774,0.067,24.78,109.9709,24.82,25.76,20.53,0,111.2,13,25.66,151.0
"2016-07-09 01:38:00",1792925,4.808,190,0.967,0.139,24.89,109.9736,24.83,25.77,20.62,0,111.2,13,25.67,152.0
"2016-07-09 01:38:30",1792926,5.152,191.8,1.388,0.172,25.01,109.9746,24.83,25.76,20.34,0,111.2,13,25.67,153.8
"2016-07-09 01:39:00",1792927,4.657,190,0.895,0.112,24.95,109.9736,24.83,25.79,20.47,0,111.2,13,25.67,152.0
"2016-07-09 01:39:30",1792928,4.587,190.5,1.222,0.109,24.95,109.9755,24.83,25.78,20.57,0,111.2,13,25.67,152.5
"2016-07-09 01:40:00",1792929,4.732,191.4,1.014,0.13,24.99,109.9761,24.83,25.8,20.56,0,111.2,13,25.67,153.4
"2016-07-09 01:40:30",1792930,5.052,192.5,1.208,0.16,25.06,109.9764,24.83,25.77,20.3,0,111.2,13,25.67,154.5
"2016-07-09 01:41:00",1792931,4.932,194,1.152,0.202,25.03,109.9761,24.83,25.78,20.08,0,111.2,13,25.67,156.0
"2016-07-09 01:41:30",1792932,4.94,193.1,1.25,0.113,25.03,109.9764,24.83,25.79,20.34,0,111.2,13,25.67,155.1
"2016-07-09 01:42:00",1792933,4.921,193.6,1.242,0.082,25.01,109.9764,24.83,25.81,20.45,0,111.2,12.99,25.67,155.6
"2016-07-09 01:42:30",1792934,4.934,196.4,1.351,0.094,24.93,109.9764,24.83,25.81,20.36,0,111.2,12.99,25.67,158.4
"2016-07-09 01:43:00",1792935,5.011,196.4,1.205,0.05,24.87,109.9764,24.83,25.79,20.2,0,111.2,12.99,25.67,158.4
"2016-07-09 01:43:30",1792936,4.95,198.2,0.862,0.088,24.79,109.9764,24.83,25.81,20.25,0,111.2,12.99,25.67,160.2
"2016-07-09 01:44:00",1792937,4.848,200.2,0.658,0.136,24.73,109.9764,24.83,25.82,20.31,0,111.2,12.99,25.67,162.2
"2016-07-09 01:44:30",1792938,4.783,201.5,1.662,0.074,24.66,109.9764,24.83,25.8,20.31,0,111.2,12.99,25.67,163.5
"2016-07-09 01:45:00",1792939,5.075,200,1.383,0.14,24.85,109.9764,24.83,25.81,20.17,0,111.2,12.99,25.67,162.0
"2016-07-09 01:45:30",1792940,4.716,202,1.186,0.091,24.9,109.9764,24.83,25.83,20.15,0,111.2,12.99,25.67,164.0
"2016-07-09 01:46:00",1792941,4.561,200.8,0.647,0.084,24.89,109.9764,24.83,25.83,20.22,0,111.2,12.99,25.67,162.8
"2016-07-09 01:46:30",1792942,4.843,202.7,1.538,0.174,25,109.9764,24.83,25.83,20.09,0,111.2,12.99,25.67,164.7
"2016-07-09 01:47:00",1792943,4.903,202.4,0.884,0.098,25.07,109.9764,24.83,25.81,19.79,0,111.2,12.99,25.67,164.4